Regional Weather Roundup
Issued by NWS Bismarck, ND

Home | Current Version | Previous Version | Graphics & Text | Print | Product List | Glossary On
Versions: 1 2 3 4 5 6 7 8 9 10 11 12 13 14 15 16 17 18 19 20 21 22 23 24 25 26 27 28 29 30 31 32 33 34 35 36 37 38 39 40 41 42 43 44 45 46 47 48 49 50
000
ASUS43 KBIS 252110
RWRBIS

NWR BROADCAST TEXT
NATIONAL WEATHER SERVICE BISMARCK ND
300 PM CST SAT FEB 25 2017

NOTE: "FAIR" INDICATES FEW OR NO CLOUDS BELOW 12,000 FEET WITH NO
SIGNIFICANT WEATHER AND/OR OBSTRUCTIONS TO VISIBILITY.


CITY           SKY/WX    TMP DP  RH WIND       PRES   REMARKS
WILLISTON      LGT SNOW  27  22  81 SW9       29.71F WCI  18
MINOT          FLURRIES  23  15  71 NW7       29.76F WCI  15
MINOT AFB      PTSUNNY   20  14  76 NW9       29.75F WCI   9
BISMARCK       CLOUDY    29  20  69 VRB6      29.79F
DICKINSON      PTSUNNY   28  19  69 W13       29.71F WCI  17
GARRISON         N/A     24  18  77 W6        29.76F WCI  17
HETTINGER ARPT CLOUDY    32  15  49 W15       29.75F
JAMESTOWN      PTSUNNY   28  20  71 NW10      29.77F WCI  19
CARRINGTON     FAIR      27  19  74 NW12      29.79F WCI  16
HAZEN            N/A    N/A N/A N/A W9        29.79F
MANDAN         MOCLDY    25  19  80 CALM      29.78F
RUGBY            N/A     18  14  86 NW12      29.77F WCI   5
STANLEY        FLURRIES  23  21  93 CALM      29.73F
TIOGA          LGT SNOW  23  23 100 SW10      29.72F WCI  12
WATFORD CITY   MOCLDY    27  21  80 SW14      29.72F WCI  15
$$

CITY           SKY/WX    TMP DP  RH WIND       PRES   REMARKS
GRAND FORKS    PTSUNNY   30  16  56 NW15      29.78S WCI  19
GRAND FORKS AF PTSUNNY   32  19  59 NW14      29.77F
DEVILS LAKE    FAIR      24  15  68 W15       29.76F WCI  11
FARGO          CLOUDY    31  24  75 W13       29.80F
CAVALIER         N/A     25  14  63 NW13      29.78S WCI  13
GRAFTON        FAIR      25  18  74 NW18      29.80F WCI  11
GWINNER        CLOUDY    32  28  86 NW12      29.80F
ROLLA          FAIR      16  10  79 N15       29.74S WCI   1
$$

CITY           SKY/WX    TMP DP  RH WIND       PRES   REMARKS
ABERDEEN       PTSUNNY   38  15  39 SW14G21   29.79F
MOBRIDGE       CLOUDY    36  23  59 NW20      29.75F
BUFFALO          N/A     32  15  49 W13       29.68F
RAPID CITY     LGT SNOW  29  21  72 S3        29.79F
GLASGOW        CLOUDY    29  19  66 NW14      29.70F WCI  18
SIDNEY         FAIR      32  22  66 W13       29.71F
WOLF POINT     LGT SNOW  31  24  75 W13       29.71F
GLENDIVE       PTSUNNY   32  23  69 W14       29.71F
MILES CITY     CLOUDY    33  14  45 W18G25    29.73F
BAKER          LGT SNOW  28  22  78 W12       29.72F WCI  18
$$

CITY           SKY/WX    TMP DP  RH WIND       PRES   REMARKS
BILLINGS       FAIR      31  12  45 W24G35    29.75F WCI  17
GREAT FALLS    PTSUNNY   31   6  35 W20G28    29.70F WCI  19
REGINA         FLURRIES  16   9  73 NW12      29.75F WCI   3
ESTEVAN        LGT SNOW  16  10  79 NW5       29.76F FOG     WCI   9
$$




USA.gov is the U.S. government's official web portal to all federal, state and local government web resources and services.